STARLINK-35926, 66642

Orbit data source: Space-Track

STARLINK-35926, 66642 is a payload satellite owned by SpaceX/Seattle (US) in LEO that was launched on Sun, 23 Nov 2025 UTC via an FALCON 9 launch vehicle from the Air Force Western Test Range (AFWTR). Payload-class satellites include a variety of spacecraft equipped with specific instruments for various scientific and technological missions. These include communications satellites like Starlink; space stations such as the ISS; scientific satellites like the Hubble; Earth observation satellites from companies like Planet Labs, Umbra, and HawkEye 360; GPS; miniature CubeSats for education and research; and military/defense satellites.

Loading next visibility...
Identifier
66642, 2025-271AB
Orbit
LEO
Country
Flag of USUS
Related business
Manufacturer
SpaceX/Seattle
Mission
Operational Commercial Communications
Bus & Motor
STARLINK V2MO, Unknown motor
Mass
575 kg wet, ~530 kg dry
Launch date (UTC)
2025-11-23 (10 months ago)
Launch vehicle
FALCON 9
Launch site
Air Force Western Test Range (AFWTR)
Object type
Payload
Rocket body
Debris
Shape & HBR
Box + 1 Pan, 17.7 m
Radar Cross Section
41.120 m², Large (>1 m²)

Expand to show TLE details & history
Last TLE update: 20 hours ago

TLE from 20 hours ago
0 STARLINK-35926
1 66642U 25271AB  26265.13524292  .00016846  00000-0  50854-3 0  9990
2 66642  53.1588 306.0266 0001111  88.0379 272.0751 15.34402596 47620
Epoch: 2026-09-22T03:14Z
TLE epoch observation values (Epoch: 2026-09-22T03:14:44.988Z)
Latitude
Longitude
-103.66591°
Altitude
463.569 km
Speed
7.636 km/s
True Right ascension
20h 24m 06s
True Declination
0° 00' 00"
Sunlit
Object was in full shadow at epoch
Visualization orbit readout
Latitude
Unknown
Longitude
Unknown
Altitude
Unknown
Speed
Unknown
Apparent Right ascension
Unknown
Apparent Declination
Unknown
Sunlit
N/A
Visualization observer readout
Local Sidereal Time
16:27:32
Azimuth
Unknown
Elevation
Unknown
Doppler factor
Unknown
Orbital elements
Apogee altitude
463.713 km
Perigee altitude
462.193 km
Semi-major axis
6,841.09 km
Eccentricity
0.00011
Inclination
53.1588°
RAAN
306.0266°
Arg. of periapsis
88.0379°
True anomaly
272.06238°
Mean anomaly
272.0751°
Eccentric anomaly
272.06874°
Mean motion
3.83579 °/min
Orbital period
93.85 mins
BSTAR
0.00050854
Loading maneuver chart data...
Computing Atmospheric mass density...
Loading historical data...
Loading historical data...
Loading historical data...
Loading historical data...
Loading historical data...
Loading historical data...
Loading historical data...

Documentation

Showing up to 5 results
|